Weather History for Buckhannon, WV

Change the Weather History Date:

Friday, November 2, 2012

  Actual Average (KEKN) Record (KEKN)
Temperature  
Mean Temperature 40 °F 46 °F  
Max Temperature 44 °F 59 °F 82 °F (2004)
Min Temperature 37 °F 33 °F 15 °F (1930)
Degree Days  
Heating Degree Days 24 19  
Month to date heating degree days 38  
Since 1 July heating degree days 629  
Cooling Degree Days 0 0  
Month to date cooling degree days 0  
Year to date cooling degree days 475  
Moisture  
Dew Point 29 °F    
Average Humidity 68    
Maximum Humidity 81    
Minimum Humidity 53    
Precipitation  
Precipitation 0.00 in 0.12 in 1.15 in (1979)
Month to date precipitation 0.23  
Year to date precipitation 39.52  
Snow  
Snow 0.00 in - - ()
Month to date snowfall  
Since 1 September snowfall  
Snow Depth -    
Sea Level Pressure  
Sea Level Pressure 29.88 in    
Wind  
Wind Speed 7 mph (West)    
Max Wind Speed 15 mph    
Max Gust Speed 26 mph    
Visibility 10 miles    
Events      
T = Trace of Precipitation, MM = Missing Value Source: NWS Daily Summary

Daily Weather History Graph

Daily Weather History Graph

Search for Another Location

Airport:

Trip Planner

Search our weather history database for the weather conditions in past years. The results will help you decide how hot, cold, wet, or windy it might be!

Date:

Astronomy

Nov. 02, 2012 Rise Set
Actual Time 7:50 AM EDT 6:18 PM EDT
Civil Twilight 7:22 AM EDT 6:46 PM EDT
Nautical Twilight 6:50 AM EDT 7:18 PM EDT
Astronomical Twilight 6:19 AM EDT 7:49 PM EDT
Moon 9:05 PM EDT (11/2) 11:08 AM EDT (11/2)
Length of Visible Light 11h 24m
Length of Day
10h 28m
Waning Gibbous, 87% of the Moon is Illuminated
Nov 2
Waning Gibbous
Nov 6
Last Quarter
Nov 13
New
Nov 20
First Quarter
Nov 28
Full

Hourly Weather History & Observations

Time (EDT) Temp. Windchill Dew Point Humidity Pressure Visibility Wind Dir Wind Speed Gust Speed Precip Events Conditions
12:15 AM 37.4 °F 32.8 °F 32.0 °F 81% 29.82 in 10.0 mi SSW 5.8 mph - N/A   Mostly Cloudy
12:35 AM 37.4 °F 33.8 °F 32.0 °F 81% 29.82 in 10.0 mi SSW 4.6 mph - N/A   Overcast
12:55 AM 37.4 °F 32.8 °F 32.0 °F 81% 29.82 in 10.0 mi SSW 5.8 mph - N/A   Mostly Cloudy
1:15 AM 37.4 °F - 30.2 °F 75% 29.82 in 10.0 mi Calm Calm - N/A   Scattered Clouds
1:35 AM 37.4 °F 32.8 °F 30.2 °F 75% 29.81 in 10.0 mi SSW 5.8 mph - N/A   Mostly Cloudy
1:55 AM 37.4 °F 32.1 °F 30.2 °F 75% 29.80 in 10.0 mi SW 6.9 mph - N/A   Mostly Cloudy
2:15 AM 37.4 °F 32.1 °F 30.2 °F 75% 29.79 in 10.0 mi SW 6.9 mph - N/A   Mostly Cloudy
2:35 AM 39.2 °F 34.2 °F 30.2 °F 70% 29.79 in 10.0 mi SW 6.9 mph - N/A   Overcast
2:55 AM 39.2 °F 33.0 °F 28.4 °F 65% 29.79 in 10.0 mi SW 9.2 mph - N/A   Overcast
3:15 AM 37.4 °F 30.8 °F 30.2 °F 75% 29.80 in 10.0 mi WSW 9.2 mph - N/A   Mostly Cloudy
3:35 AM 37.4 °F 32.1 °F 28.4 °F 70% 29.79 in 10.0 mi WSW 6.9 mph - N/A   Mostly Cloudy
3:55 AM 37.4 °F 30.8 °F 30.2 °F 75% 29.79 in 10.0 mi SW 9.2 mph - N/A   Mostly Cloudy
4:15 AM 37.4 °F 32.1 °F 30.2 °F 75% 29.79 in 10.0 mi SW 6.9 mph - N/A   Mostly Cloudy
4:35 AM 37.4 °F 32.1 °F 28.4 °F 70% 29.78 in 10.0 mi SW 6.9 mph - N/A   Partly Cloudy
4:55 AM 37.4 °F 32.1 °F 28.4 °F 70% 29.78 in 10.0 mi SW 6.9 mph - N/A   Partly Cloudy
5:15 AM 37.4 °F 31.4 °F 30.2 °F 75% 29.78 in 10.0 mi SW 8.1 mph - N/A   Scattered Clouds
5:35 AM 37.4 °F 32.1 °F 30.2 °F 75% 29.79 in 10.0 mi SW 6.9 mph - N/A   Mostly Cloudy
5:55 AM 37.4 °F 32.1 °F 28.4 °F 70% 29.79 in 10.0 mi WSW 6.9 mph - N/A   Overcast
6:15 AM 37.4 °F 32.1 °F 28.4 °F 70% 29.79 in 10.0 mi SW 6.9 mph - N/A   Mostly Cloudy
6:35 AM 37.4 °F 32.8 °F 28.4 °F 70% 29.79 in 10.0 mi WSW 5.8 mph - N/A   Clear
6:55 AM 37.4 °F 32.1 °F 28.4 °F 70% 29.80 in 10.0 mi WSW 6.9 mph - N/A   Clear
7:15 AM 37.4 °F 30.8 °F 28.4 °F 70% 29.79 in 10.0 mi West 9.2 mph - N/A   Clear
7:35 AM 37.4 °F 32.1 °F 28.4 °F 70% 29.80 in 10.0 mi West 6.9 mph - N/A   Clear
7:55 AM 37.4 °F 30.3 °F 28.4 °F 70% 29.81 in 10.0 mi West 10.4 mph - N/A   Clear
8:15 AM 37.4 °F 30.8 °F 28.4 °F 70% 29.81 in 10.0 mi West 9.2 mph - N/A   Clear
8:35 AM 37.4 °F 30.8 °F 28.4 °F 70% 29.82 in 10.0 mi West 9.2 mph - N/A   Clear
8:55 AM 37.4 °F 32.8 °F 28.4 °F 70% 29.83 in 10.0 mi WNW 5.8 mph - N/A   Clear
9:15 AM 37.4 °F 32.1 °F 28.4 °F 70% 29.84 in 10.0 mi West 6.9 mph - N/A   Clear
9:35 AM 37.4 °F 31.4 °F 28.4 °F 70% 29.85 in 10.0 mi West 8.1 mph - N/A   Partly Cloudy
9:55 AM 37.4 °F 33.8 °F 28.4 °F 70% 29.86 in 10.0 mi WNW 4.6 mph - N/A   Scattered Clouds
10:15 AM 37.4 °F 32.1 °F 30.2 °F 75% 29.87 in 10.0 mi WNW 6.9 mph - N/A   Partly Cloudy
10:35 AM 37.4 °F 31.4 °F 30.2 °F 75% 29.87 in 10.0 mi West 8.1 mph - N/A   Clear
10:55 AM 39.2 °F 34.2 °F 30.2 °F 70% 29.87 in 10.0 mi West 6.9 mph - N/A   Clear
11:15 AM 39.2 °F 33.0 °F 30.2 °F 70% 29.88 in 10.0 mi WSW 9.2 mph - N/A   Partly Cloudy
11:35 AM 39.2 °F 33.6 °F 30.2 °F 70% 29.89 in 10.0 mi West 8.1 mph - N/A   Partly Cloudy
11:55 AM 41.0 °F 35.8 °F 30.2 °F 65% 29.89 in 10.0 mi West 8.1 mph - N/A   Scattered Clouds
12:15 PM 41.0 °F 36.4 °F 30.2 °F 65% 29.89 in 10.0 mi NW 6.9 mph - N/A   Scattered Clouds
12:35 PM 42.8 °F 38.6 °F 30.2 °F 61% 29.89 in 10.0 mi WNW 6.9 mph - N/A   Mostly Cloudy
12:55 PM 41.0 °F 35.2 °F 30.2 °F 65% 29.89 in 10.0 mi West 9.2 mph - N/A   Scattered Clouds
1:15 PM 42.8 °F 36.6 °F 30.2 °F 61% 29.89 in 10.0 mi West 11.5 mph - N/A   Mostly Cloudy
1:35 PM 42.8 °F 36.6 °F 30.2 °F 61% 29.89 in 10.0 mi West 11.5 mph 18.4 mph N/A   Mostly Cloudy
1:55 PM 44.6 °F 37.8 °F 28.4 °F 53% 29.88 in 10.0 mi West 15.0 mph 18.4 mph N/A   Overcast
2:15 PM 42.8 °F 36.6 °F 30.2 °F 61% 29.89 in 10.0 mi West 11.5 mph 19.6 mph N/A   Overcast
2:35 PM 42.8 °F 35.4 °F 28.4 °F 57% 29.89 in 10.0 mi West 15.0 mph 19.6 mph N/A   Overcast
2:55 PM 44.6 °F 39.7 °F 28.4 °F 53% 29.89 in 10.0 mi West 9.2 mph 20.7 mph N/A   Mostly Cloudy
3:15 PM 42.8 °F 35.8 °F 28.4 °F 57% 29.90 in 10.0 mi West 13.8 mph 26.5 mph N/A   Mostly Cloudy
3:35 PM 42.8 °F 37.0 °F 28.4 °F 57% 29.90 in 10.0 mi NNW 10.4 mph 24.2 mph N/A   Overcast
3:55 PM 42.8 °F 38.0 °F 28.4 °F 57% 29.91 in 10.0 mi NNW 8.1 mph - N/A   Overcast
4:15 PM 42.8 °F 38.6 °F 28.4 °F 57% 29.92 in 10.0 mi WNW 6.9 mph - N/A   Mostly Cloudy
4:35 PM 42.8 °F 37.5 °F 28.4 °F 57% 29.92 in 10.0 mi NW 9.2 mph 16.1 mph N/A   Mostly Cloudy
4:55 PM 42.8 °F 40.1 °F 28.4 °F 57% 29.93 in 10.0 mi NW 4.6 mph - N/A   Scattered Clouds
5:15 PM 42.8 °F 38.6 °F 28.4 °F 57% 29.93 in 10.0 mi NNW 6.9 mph - N/A   Mostly Cloudy
5:35 PM 41.0 °F 35.2 °F 28.4 °F 61% 29.94 in 10.0 mi NNW 9.2 mph - N/A   Mostly Cloudy
5:55 PM 41.0 °F 34.7 °F 28.4 °F 61% 29.95 in 10.0 mi NNW 10.4 mph - N/A   Overcast
6:15 PM 41.0 °F 36.4 °F 28.4 °F 61% 29.95 in 10.0 mi WNW 6.9 mph - N/A   Mostly Cloudy
6:35 PM 39.2 °F 33.6 °F 28.4 °F 65% 29.97 in 10.0 mi WNW 8.1 mph 17.3 mph N/A   Partly Cloudy
6:55 PM 39.2 °F 33.0 °F 28.4 °F 65% 29.97 in 10.0 mi NNW 9.2 mph - N/A   Partly Cloudy
7:15 PM 39.2 °F 34.2 °F 28.4 °F 65% 29.98 in 10.0 mi NW 6.9 mph - N/A   Clear
7:55 PM 37.4 °F 31.4 °F 28.4 °F 70% 29.99 in 10.0 mi NNW 8.1 mph - N/A   Partly Cloudy
8:15 PM 37.4 °F 33.8 °F 28.4 °F 70% 30.00 in 10.0 mi NW 4.6 mph - N/A   Mostly Cloudy
8:35 PM 37.4 °F 32.8 °F 28.4 °F 70% 30.00 in 10.0 mi WNW 5.8 mph - N/A   Overcast
8:55 PM 37.4 °F 32.8 °F 28.4 °F 70% 30.00 in 10.0 mi WNW 5.8 mph - N/A   Overcast
9:15 PM 37.4 °F 32.8 °F 28.4 °F 70% 30.01 in 10.0 mi NW 5.8 mph - N/A   Overcast
9:35 PM 37.4 °F 30.8 °F 28.4 °F 70% 30.01 in 10.0 mi WNW 9.2 mph - N/A   Mostly Cloudy
9:55 PM 37.4 °F 33.8 °F 28.4 °F 70% 30.01 in 10.0 mi WNW 4.6 mph - N/A   Overcast
10:15 PM 37.4 °F 32.1 °F 28.4 °F 70% 30.01 in 10.0 mi WNW 6.9 mph - N/A   Overcast
10:35 PM 37.4 °F 31.4 °F 28.4 °F 70% 30.01 in 10.0 mi NW 8.1 mph 16.1 mph N/A   Overcast
10:55 PM 37.4 °F 32.1 °F 28.4 °F 70% 30.01 in 10.0 mi WNW 6.9 mph - N/A   Overcast
11:15 PM 37.4 °F 33.8 °F 28.4 °F 70% 30.01 in 10.0 mi West 4.6 mph - N/A   Overcast
11:35 PM 37.4 °F 32.1 °F 28.4 °F 70% 30.01 in 10.0 mi NNW 6.9 mph - N/A   Overcast
11:55 PM 37.4 °F 30.3 °F 30.2 °F 75% 30.02 in 10.0 mi NNW 10.4 mph 18.4 mph N/A   Overcast